[[{"header":{"parameterUnit":"m.s-1","parameterCategory":1,"la1":30.2991,"la2":30.254,"lo1":-89.0895,"lo2":-89.0444,"dy":0.0017,"dx":0.0017,"nx":28,"ny":28,"refTime":"2024-09-28T09:00:00:Z","depth":0,"parameterNumber":2,"parameterNumberName":"U-component_of_WINDS"},"data":[0,0,0,0,0,0,0,0,0,0,0,0,0,0,0,0,0,0,0,0,0,0,0,0,0,0,0,0,0,0,0,0,0,0,0,0,0,0,0,0,0,0,0,0,0,0,0,0,0,0,0,0,0,0,0,0,0,0,5.2703,5.2705,0,5.2944,5.2947,5.2949,5.2902,5.2897,5.2893,5.2889,5.314,5.3151,5.3162,0,0,0,0,0,0,0,0,0,0,0,0,0,5.2201,5.2211,5.2702,5.2705,5.2708,5.2943,5.2947,5.295,5.2902,5.2897,5.2892,5.2887,5.3137,5.315,5.3163,0,0,0,0,0,0,0,0,0,0,0,0,0,5.2429,5.2214,5.2702,5.2713,5.2716,5.2943,5.2947,5.2951,5.2904,5.2897,5.289,5.2884,5.3133,5.3148,5.3164,5.3397,0,0,5.3214,5.3221,0,0,0,0,0,0,0,0,5.2416,5.2447,5.2708,5.2712,5.2717,5.2886,5.2862,5.3101,5.2905,5.2833,5.2889,5.2881,5.3061,5.3083,5.3143,5.3408,5.3419,5.3215,5.3225,5.3232,5.3237,0,0,0,0,0,0,0,5.24,5.2436,5.2798,5.2712,5.2717,5.2706,5.2731,5.2907,5.2981,5.2838,5.2836,5.2865,5.3062,5.3127,5.3149,5.3423,5.3215,5.3229,5.3239,5.3246,5.3887,5.3894,0,0,0,0,0,0,5.238,5.2424,5.279,5.2805,5.2547,5.272,5.2748,5.2838,5.2979,5.2994,5.287,5.2861,5.3103,5.313,5.3157,5.3435,5.3232,5.3247,5.3257,5.3879,5.3888,5.3896,0,0,0,0,0,0,5.237,5.2413,5.2781,5.2614,5.266,5.2736,5.2837,5.2847,5.2911,5.3003,5.3016,5.2923,5.3099,5.3134,5.3336,5.3443,5.3255,5.3269,5.3871,5.3882,5.3892,5.3995,0,0,0,0,0,0,5.2355,5.241,5.2499,5.2616,5.2669,5.2955,5.2844,5.2856,5.2939,5.293,5.3056,5.307,5.3096,5.3312,5.3352,5.3462,5.3282,5.3861,5.3876,5.3889,5.3982,5.4008,5.403,0,0,0,0,0,5.2338,5.252,5.2503,5.2548,5.2781,5.2962,5.2992,5.3017,5.2948,5.3037,5.3096,5.3066,5.3425,5.3333,5.3378,5.3494,5.3855,5.3872,5.3888,5.3972,5.4003,5.4029,0,0,0,0,0,0,5.2416,5.2536,5.2519,5.2744,5.2843,5.2953,5.3067,5.305,5.3172,5.3158,5.3186,5.3214,5.3419,5.3477,5.3372,5.3724,5.363,5.3656,5.3679,5.3709,5.3733,5.3714,5.3295,0,0,0,0,0,5.2458,5.2594,5.2692,5.2882,5.2932,5.2991,5.3071,5.3081,5.3185,5.3227,5.33,5.3403,5.3538,5.3627,5.3758,5.3991,5.4016,5.4093,5.4116,5.4135,5.4158,5.4282,5.4316,5.395,5.395,5.395,0,0,5.255,5.2632,5.2716,5.2899,5.2977,5.3116,5.3027,5.3179,5.3283,5.3251,5.3444,5.3501,5.3618,5.3835,5.3935,5.389,5.4264,5.4157,5.4171,5.4183,5.4302,5.4337,5.4367,5.3961,5.3959,5.3957,0,0,5.2786,5.2863,5.3027,5.3106,5.3223,5.3261,5.3301,5.3414,5.3449,5.3644,5.3621,5.3745,5.3979,5.4062,5.4135,5.4399,5.4375,5.4441,5.4565,5.4686,5.4715,5.474,5.4832,5.4865,5.4463,5.4463,5.4463,0,5.2885,5.3093,5.3115,5.3268,5.3348,5.3323,5.3489,5.3565,5.372,5.3776,5.3723,5.4013,5.409,5.4325,5.4388,5.4449,5.4494,5.4426,5.4709,5.4735,5.4759,5.4846,5.4881,5.447,5.4469,5.4468,5.4468,0,5.3207,5.3352,5.3471,5.3618,5.3712,5.3871,5.3916,5.4008,5.401,5.4053,5.425,5.4341,5.4487,5.4544,5.4549,5.4779,5.4747,5.4702,5.4607,5.48,5.4883,5.4917,5.448,5.4477,5.4475,5.4473,0,0,5.3501,5.3655,5.3698,5.3762,5.3889,5.4002,5.4159,5.43,5.4377,5.4485,5.4616,5.4813,5.477,5.4853,5.4866,5.4973,5.5172,5.4914,5.4917,5.4957,5.5428,5.546,5.5498,5.5158,5.5164,5.5169,5.5417,0,5.3747,5.4023,5.4045,5.4293,5.4426,5.4402,5.4539,5.4631,5.4675,5.4794,5.4843,5.4981,5.4916,5.4965,5.5069,5.5126,5.5267,5.5108,5.5279,5.5285,5.5249,5.5542,5.5577,5.5807,5.545,5.5456,5.546,0,5.4072,5.4185,5.4445,5.4549,5.4606,5.4729,5.4857,5.4972,5.5075,5.51,5.519,5.5188,5.5349,5.5249,5.547,5.5362,5.5433,5.5471,5.5481,5.5496,5.5383,5.5564,5.5881,5.5915,5.5511,5.5507,5.5504,0,5.4256,5.4474,5.4657,5.4714,5.4841,5.4927,5.4984,5.5081,5.5163,5.5276,5.5329,5.5461,5.5532,5.5634,5.5667,5.5592,5.5886,5.579,5.591,5.5909,5.5973,5.5968,5.6304,5.6022,5.6022,5.6021,5.602,0,5.4527,5.4687,5.4741,5.4854,5.5031,5.5055,5.523,5.5283,5.5369,5.549,5.5479,5.5594,5.5632,5.5753,5.578,5.5958,5.5991,5.6015,5.602,5.6015,5.6011,5.6061,5.6045,5.603,5.6028,5.6026,5.6025,0,5.4764,5.4806,5.5004,5.5106,5.5136,5.5262,5.535,5.5458,5.5498,5.5653,5.5691,5.5755,5.5897,5.594,5.6112,5.613,5.6337,5.6329,5.6301,5.6301,5.6418,5.6405,5.6796,5.6847,5.6533,5.6536,5.6539,0,5.4933,5.5055,5.5169,5.5249,5.5308,5.5438,5.552,5.5548,5.5635,5.5759,5.5852,5.5992,5.6104,5.6332,5.6395,5.6525,5.6519,5.6646,5.6538,5.6528,5.6518,5.6509,5.652,5.6666,5.667,5.6672,5.6675,0,5.5228,5.5242,5.5361,5.5487,5.5585,5.5686,5.5783,5.5849,5.589,5.5988,5.6131,5.6219,5.6392,5.653,5.6661,5.6721,5.6705,5.6708,5.6742,5.6737,5.6715,5.6726,5.6354,5.6699,5.6696,5.6695,5.6693,5.6692,5.5435,5.554,5.5636,5.5768,5.5843,5.5933,5.6038,5.609,5.621,5.6351,5.6361,5.6515,5.6613,5.6788,5.6854,5.6975,5.6938,5.6988,5.7001,5.7012,5.702,5.6697,5.6999,5.6999,5.6998,5.6998,5.6997,0,5.5727,5.5787,5.5907,5.6041,5.6145,5.6118,5.6224,5.6312,5.6447,5.6539,5.6649,5.6812,5.6945,5.7017,5.7149,5.7232,5.7228,5.7266,5.7259,5.7272,5.7047,5.7003,5.7267,5.7267,5.7267,5.7267,5.7267,5.7267,5.5891,5.6067,5.6092,5.6305,5.6363,5.6513,5.6575,5.6657,5.673,5.6912,5.7021,5.7066,5.715,5.7287,5.7408,5.7425,5.7474,5.7515,5.7529,5.7317,5.7289,5.7262,5.7221,5.7526,5.7527,5.7744,5.7746,5.7747]},{"header":{"parameterUnit":"m.s-1","parameterCategory":1,"la1":30.2991,"la2":30.254,"lo1":-89.0895,"lo2":-89.0444,"dy":0.0017,"dx":0.0017,"nx":28,"ny":28,"refTime":"2024-09-28T09:00:00:Z","depth":0,"parameterNumber":3,"parameterNumberName":"V-component_of_WINDS"},"data":[0,0,0,0,0,0,0,0,0,0,0,0,0,0,0,0,0,0,0,0,0,0,0,0,0,0,0,0,0,0,0,0,0,0,0,0,0,0,0,0,0,0,0,0,0,0,0,0,0,0,0,0,0,0,0,0,0,0,2.2894,2.2894,0,2.2926,2.2927,2.2927,2.2866,2.2864,2.2862,2.286,2.2894,2.2896,2.2899,0,0,0,0,0,0,0,0,0,0,0,0,0,2.2779,2.2781,2.2894,2.2894,2.2895,2.2926,2.2927,2.2927,2.2866,2.2864,2.2861,2.2859,2.2893,2.2896,2.2899,0,0,0,0,0,0,0,0,0,0,0,0,0,2.2822,2.2782,2.2894,2.2868,2.2866,2.2926,2.2927,2.2927,2.2867,2.2864,2.2861,2.2858,2.2892,2.2896,2.29,2.2987,0,0,2.2913,2.2915,0,0,0,0,0,0,0,0,2.2819,2.2826,2.2871,2.287,2.2868,2.2889,2.2898,2.2947,2.2867,2.2866,2.286,2.2856,2.2895,2.2898,2.2911,2.2988,2.299,2.2913,2.2916,2.2917,2.2919,0,0,0,0,0,0,0,2.2816,2.2824,2.2907,2.2872,2.287,2.2855,2.2857,2.2907,2.2897,2.2866,2.2862,2.2867,2.2893,2.2907,2.2912,2.299,2.2913,2.2917,2.2919,2.2921,2.3139,2.3142,0,0,0,0,0,0,2.2817,2.2822,2.2906,2.2908,2.2835,2.2859,2.2862,2.2885,2.2897,2.2895,2.2869,2.2864,2.2902,2.2907,2.2912,2.3014,2.2917,2.2921,2.2924,2.3135,2.3139,2.3143,0,0,0,0,0,0,2.2814,2.2825,2.2904,2.2864,2.2873,2.2864,2.2891,2.2887,2.2902,2.2899,2.2897,2.2886,2.2899,2.2907,2.2968,2.3014,2.2923,2.2927,2.3132,2.3137,2.3141,2.3218,0,0,0,0,0,0,2.2811,2.2824,2.2857,2.2865,2.2875,2.296,2.2894,2.289,2.2909,2.2902,2.2914,2.2913,2.2898,2.2962,2.2973,2.3018,2.293,2.3127,2.3134,2.314,2.3211,2.3225,2.3237,0,0,0,0,0,2.2807,2.2878,2.2859,2.287,2.2916,2.2963,2.2969,2.295,2.2913,2.2946,2.2944,2.2912,2.3008,2.2969,2.298,2.3028,2.3124,2.3132,2.3139,2.3206,2.3222,2.3236,0,0,0,0,0,0,2.2877,2.2879,2.2858,2.2933,2.2948,2.2953,2.2994,2.2968,2.2994,2.2987,2.2962,2.2965,2.3032,2.3036,2.2993,2.3112,2.306,2.307,2.3107,2.3122,2.3135,2.3132,2.2934,0,0,0,0,0,2.2901,2.2939,2.2938,2.3005,2.3013,2.3003,2.3022,2.3006,2.3021,2.3027,2.3029,2.3045,2.3078,2.31,2.3131,2.3212,2.3213,2.325,2.3262,2.3273,2.3281,2.3323,2.3339,2.3167,2.3167,2.3167,0,0,2.2952,2.2957,2.2983,2.3019,2.3029,2.3068,2.3008,2.3053,2.3081,2.3034,2.3092,2.3094,2.3109,2.3181,2.3212,2.3186,2.3329,2.3282,2.329,2.3293,2.3332,2.3349,2.3363,2.3172,2.3171,2.317,0,0,2.3063,2.3072,2.3127,2.3138,2.3153,2.3145,2.3158,2.3166,2.3165,2.3223,2.3188,2.3221,2.328,2.3292,2.3305,2.342,2.3391,2.343,2.3496,2.3537,2.3551,2.3563,2.3603,2.3617,2.3439,2.3439,2.344,0,2.3124,2.3181,2.3159,2.3206,2.3222,2.318,2.3236,2.3247,2.3272,2.3284,2.3255,2.3325,2.3333,2.3406,2.3434,2.3447,2.346,2.3429,2.3551,2.3562,2.3573,2.3611,2.3626,2.3444,2.3443,2.3443,2.3443,0,2.3255,2.3295,2.3338,2.3362,2.3384,2.3435,2.342,2.3444,2.3426,2.3421,2.348,2.3487,2.3518,2.3534,2.3517,2.3604,2.3587,2.3555,2.3502,2.3594,2.3629,2.3644,2.3451,2.3449,2.3448,2.3446,0,0,2.3412,2.3422,2.3438,2.3448,2.3461,2.3491,2.354,2.3569,2.359,2.3608,2.3648,2.3697,2.3667,2.3682,2.3666,2.3702,2.3791,2.3665,2.3665,2.3687,2.3886,2.391,2.3927,2.3772,2.3775,2.3777,2.3884,0,2.3522,2.3605,2.3586,2.3668,2.3704,2.3664,2.3706,2.3719,2.3715,2.3745,2.3741,2.3776,2.3733,2.3742,2.3776,2.3773,2.383,2.3765,2.3808,2.381,2.3805,2.3946,2.3972,2.4073,2.3898,2.39,2.3902,0,2.3662,2.3684,2.377,2.3775,2.379,2.3828,2.3852,2.3882,2.3895,2.3889,2.3906,2.3882,2.393,2.3876,2.3941,2.3897,2.3913,2.3914,2.3918,2.3921,2.3861,2.3952,2.4105,2.412,2.3924,2.3922,2.392,0,2.3766,2.3818,2.3876,2.3885,2.3894,2.3921,2.3926,2.3935,2.3954,2.3975,2.3987,2.4014,2.4029,2.405,2.4034,2.3997,2.41,2.4046,2.4097,2.4097,2.412,2.4119,2.4278,2.4132,2.4132,2.4132,2.4131,0,2.3891,2.3945,2.3923,2.3958,2.4017,2.3994,2.4052,2.4052,2.4061,2.4095,2.4062,2.4095,2.4072,2.4103,2.4091,2.4145,2.4152,2.4149,2.4145,2.4152,2.4152,2.4162,2.4154,2.4136,2.4135,2.4134,2.4133,0,2.4018,2.4006,2.4066,2.4068,2.407,2.4113,2.4115,2.4147,2.414,2.4184,2.4193,2.4183,2.4217,2.4203,2.424,2.4231,2.4301,2.4288,2.4297,2.4293,2.4344,2.434,2.4514,2.4536,2.4377,2.4379,2.438,0,2.4098,2.4138,2.4145,2.4165,2.4172,2.4206,2.4224,2.4202,2.4223,2.4239,2.427,2.4301,2.4325,2.4382,2.4377,2.4405,2.4392,2.4451,2.4396,2.4401,2.4392,2.4389,2.4393,2.4462,2.4464,2.4465,2.4467,0,2.4241,2.4233,2.426,2.4286,2.4308,2.4327,2.4343,2.4362,2.4341,2.4365,2.44,2.4418,2.4455,2.4486,2.451,2.4514,2.4487,2.4484,2.4497,2.4504,2.4507,2.4505,2.4326,2.448,2.4479,2.4478,2.4477,2.4477,2.4347,2.438,2.4389,2.4421,2.443,2.4446,2.4476,2.4473,2.4501,2.4529,2.4514,2.4554,2.4564,2.4594,2.4602,2.4632,2.4609,2.4628,2.4633,2.4638,2.4644,2.4503,2.4637,2.4636,2.4636,2.4636,2.4635,0,2.4487,2.4491,2.452,2.4543,2.4568,2.4539,2.4555,2.4577,2.4613,2.4625,2.4648,2.4687,2.4717,2.4715,2.4742,2.4767,2.4755,2.4774,2.4772,2.4773,2.4664,2.4649,2.4783,2.4783,2.4783,2.4783,2.4783,2.4783,2.4563,2.4618,2.461,2.4669,2.4672,2.471,2.4722,2.4735,2.4744,2.4789,2.4814,2.4812,2.4817,2.4845,2.487,2.4869,2.488,2.4904,2.4898,2.4796,2.4781,2.4767,2.4753,2.4907,2.4907,2.5005,2.5006,2.5006]}]]